sat.trackr.live / text

‹ back to catalog

INTELSAT 10-02

NORAD 28358 · 2004-022A

PAYLOAD ACTIVE UNKNOWN

§ Identity

Operator
Country
ITSO
Launch date
2004-06-16
Launch site
TYMSC
Launch vehicle
Mass (kg)
RCS (m²)
21.20

Purposes: comms

External: N2YO · Heavens-Above · Gunter

§ Orbital elements

Epoch: 2026-09-13T01:52:28.697088Z

Period
1,436.09 min
Inclination
0.0441°
Eccentricity
0.0000172
Mean motion
1.00272193 rev/d
Perigee alt
35,785.8 km
Apogee alt
35,787.2 km
Semi-major
42,164.6 km
B*
0.0000e+0
RAAN
262.1466°
Arg perigee
33.9651°
Mean anomaly
83.0808°
Rev number
8,143

§ Raw data

INTELSAT 10-021 28358U 04022A   26256.07810992 -.00000023  00000+0  00000+0 0  99952 28358   0.0441 262.1466 0000172  33.9651  83.0808  1.00272193 81439

JSON: /api/v1/satellites/28358 · /tle

For live sub-satellite position, see the globe view (requires WebGL).

§ Visibility from observer

Set your observer location to see the next 7 days of passes ≥ 10°. The values pass through the URL so the page stays shareable.

No JS? Fill the form by hand. The geolocation button needs JavaScript.